GW2328 Weather Reports


Display with metric or nautical units.
time (UTC)temp
F
wind
direction
speed
MPH
gust
MPH
rain 1hr
in
rain 24hr
in
rain mn
in
humidity
%
barometer
mb
20260505004355 72 170 0.0 1.0 0.00 0.00 0.00 50 1009.7
20260505003853 73 148 1.0 1.0 0.00 0.00 0.00 50 1009.7
20260505003350 73 147 1.0 2.0 0.00 0.00 0.00 50 1009.8
20260505002846 73 141 0.0 2.0 0.00 0.00 0.00 50 1009.7
20260505002343 73 156 1.0 1.0 0.00 0.00 0.00 50 1009.7
20260505001841 73 157 1.0 2.0 0.00 0.00 0.00 50 1009.7
20260505001338 74 148 0.0 2.0 0.00 0.00 0.00 50 1009.3
20260505000835 74 193 1.0 2.0 0.00 0.00 0.00 50 1009.5
20260505000333 74 151 0.0 2.0 0.00 0.00 0.00 50 1009.7
20260504235829 74 159 1.0 1.0 0.00 0.00 0.00 49 1009.6
20260504235326 75 150 0.0 1.0 0.00 0.00 0.00 49 1009.9
20260504234823 75 151 0.0 0.0 0.00 0.00 0.00 48 1010.1
20260504234321 75 171 0.0 2.0 0.00 0.00 0.00 48 1009.8
20260504233817 75 150 0.0 2.0 0.00 0.00 0.00 48 1009.9
20260504233313 75 149 1.0 3.0 0.00 0.00 0.00 48 1009.9
20260504232810 76 166 2.0 3.0 0.00 0.00 0.00 47 1010.2
20260504232307 76 179 1.0 2.0 0.00 0.00 0.00 47 1010.3
20260504231804 76 170 2.0 5.0 0.00 0.00 0.00 47 1010.0
20260504231300 76 137 1.0 2.0 0.00 0.00 0.00 47 1010.2
20260504230756 76 150 1.0 1.0 0.00 0.00 0.00 47 1010.4
20260504230254 76 162 0.0 2.0 0.00 0.00 0.00 47 1010.4
20260504225753 76 156 2.0 3.0 0.00 0.00 0.00 46 1010.5
20260504225249 76 259 1.0 5.0 0.00 0.00 0.00 46 1010.9
20260504224746 76 205 5.0 9.0 0.00 0.00 0.00 45 1010.8
20260504224243 77 209 5.0 6.0 0.00 0.00 0.00 45 1010.7
20260504223740 77 163 5.0 8.0 0.00 0.00 0.00 44 1011.2
20260504223235 77 145 2.0 3.0 0.00 0.00 0.00 44 1010.9
20260504222732 77 177 1.0 5.0 0.00 0.00 0.00 44 1011.4
20260504222229 78 246 3.0 5.0 0.00 0.00 0.00 44 1011.3
20260504221727 78 142 2.0 3.0 0.00 0.00 0.00 44 1011.2
20260504221223 78 144 1.0 6.0 0.00 0.00 0.00 44 1011.5
20260504220720 78 124 2.0 5.0 0.00 0.00 0.00 45 1011.1
20260504220218 78 122 2.0 7.0 0.00 0.00 0.00 45 1011.3
20260504215714 78 161 2.0 6.0 0.00 0.00 0.00 46 1011.5
20260504215211 78 242 1.0 6.0 0.00 0.00 0.00 46 1011.3
20260504214707 78 249 1.0 3.0 0.00 0.00 0.00 46 1011.5
20260504214204 79 43 2.0 7.0 0.00 0.00 0.00 45 1011.5
20260504213700 79 197 3.0 3.0 0.00 0.00 0.00 46 1011.6
20260504213157 79 167 1.0 2.0 0.00 0.00 0.00 46 1011.6
20260504212654 79 178 1.0 3.0 0.00 0.00 0.00 46 1011.4
20260504212150 78 153 0.0 6.0 0.00 0.00 0.00 46 1011.5
20260504211648 78 143 0.0 5.0 0.00 0.00 0.00 46 1011.5
20260504211144 78 141 2.0 5.0 0.00 0.00 0.00 46 1011.6
20260504210642 78 143 1.0 2.0 0.00 0.00 0.00 46 1011.9
20260504210138 78 155 1.0 2.0 0.00 0.00 0.00 45 1012.1
20260504205636 78 134 3.0 7.0 0.00 0.00 0.00 45 1011.9
20260504205133 77 161 2.0 5.0 0.00 0.00 0.00 44 1012.0
20260504204631 78 167 2.0 7.0 0.00 0.00 0.00 43 1012.2
20260504204130 78 266 3.0 3.0 0.00 0.00 0.00 43 1012.3
20260504203628 79 160 2.0 5.0 0.00 0.00 0.00 41 1012.1
20260504203125 80 163 3.0 6.0 0.00 0.00 0.00 41 1012.2
20260504202620 81 192 1.0 7.0 0.00 0.00 0.00 40 1012.1
20260504202117 81 236 3.0 8.0 0.00 0.00 0.00 42 1011.8
20260504201614 80 144 2.0 5.0 0.00 0.00 0.00 42 1011.9
20260504201112 80 179 2.0 7.0 0.00 0.00 0.00 43 1012.0
20260504200609 80 172 1.0 6.0 0.00 0.00 0.00 42 1011.7
20260504200105 80 169 2.0 5.0 0.00 0.00 0.00 43 1011.7
20260504195601 80 183 2.0 7.0 0.00 0.00 0.00 44 1011.9
20260504195057 80 155 3.0 7.0 0.00 0.00 0.00 43 1011.8
20260504194554 80 176 2.0 5.0 0.00 0.00 0.00 43 1012.1
20260504194049 81 254 2.0 3.0 0.00 0.00 0.00 43 1012.1
20260504193546 81 161 4.0 6.0 0.00 0.00 0.00 44 1012.1
20260504193045 80 153 0.0 3.0 0.00 0.00 0.00 44 1012.0
20260504192543 80 197 4.0 7.0 0.00 0.00 0.00 43 1012.3
20260504192041 81 170 3.0 7.0 0.00 0.00 0.00 43 1012.3
20260504191538 82 135 3.0 5.0 0.00 0.00 0.00 44 1012.4
20260504191034 81 242 2.0 5.0 0.00 0.00 0.00 44 1012.5
20260504190531 81 249 2.0 5.0 0.00 0.00 0.00 44 1012.5
20260504190027 81 204 2.0 8.0 0.00 0.00 0.00 44 1012.4
20260504185524 81 214 3.0 6.0 0.00 0.00 0.00 45 1012.7
20260504185020 80 156 1.0 5.0 0.00 0.00 0.00 46 1012.9
20260504184516 79 138 0.0 3.0 0.00 0.00 0.00 47 1012.9
20260504184012 79 167 1.0 3.0 0.00 0.00 0.00 47 1013.1
20260504183509 80 194 2.0 3.0 0.00 0.00 0.00 48 1013.1
20260504183007 79 135 1.0 5.0 0.00 0.00 0.00 48 1013.0
20260504182503 78 186 2.0 3.0 0.00 0.00 0.00 49 1013.1
20260504182001 78 312 5.0 8.0 0.00 0.00 0.00 49 1013.3
20260504181458 79 297 2.0 6.0 0.00 0.00 0.00 50 1013.1
20260504180956 78 218 1.0 3.0 0.00 0.00 0.00 49 1013.0
20260504180455 79 167 0.0 2.0 0.00 0.00 0.00 50 1013.3
20260504175953 79 159 3.0 5.0 0.00 0.00 0.00 51 1013.2
20260504175450 77 173 3.0 5.0 0.00 0.00 0.00 50 1013.2
20260504174947 77 194 5.0 8.0 0.00 0.00 0.00 51 1013.2
20260504174445 78 122 2.0 2.0 0.00 0.00 0.00 51 1013.1
20260504173942 78 141 1.0 2.0 0.00 0.00 0.00 51 1013.1
20260504173438 77 185 0.0 3.0 0.00 0.00 0.00 51 1013.0
20260504172936 77 224 2.0 10.0 0.00 0.00 0.00 52 1013.1
20260504172431 77 183 3.0 6.0 0.00 0.00 0.00 52 1012.8
20260504171928 77 171 1.0 1.0 0.00 0.00 0.00 54 1013.2
20260504171425 75 144 2.0 6.0 0.00 0.00 0.00 54 1013.1
20260504170922 75 170 1.0 3.0 0.00 0.00 0.00 54 1013.3
20260504170419 75 143 1.0 6.0 0.00 0.00 0.00 54 1013.4
20260504160338 72 127 3.0 5.0 0.00 0.00 0.00 62 1013.8
20260504150802 65 133 3.0 3.0 0.00 0.00 0.00 78 1014.3
20260504150259 63 189 3.0 3.0 0.00 0.00 0.00 79 1014.4
20260504141229 59 155 0.0 1.0 0.00 0.00 0.00 83 1014.5
20260504140725 60 142 1.0 3.0 0.00 0.00 0.00 83 1014.5
20260504140221 59 157 1.0 5.0 0.00 0.00 0.00 84 1014.4
20260504130649 57 172 0.0 1.0 0.00 0.00 0.00 87 1013.8
20260504130146 56 159 0.0 1.0 0.00 0.00 0.00 87 1014.1
20260504120110 55 152 0.0 1.0 0.00 0.00 0.00 82 1015.4
20260504110537 56 167 1.0 2.0 0.00 0.00 0.00 77 1015.0
20260504100454 55 152 0.0 1.0 0.00 0.00 0.00 72 1014.6
20260504081847 55 155 0.0 0.0 0.00 0.00 0.00 68 1015.1
20260504081343 55 155 0.0 0.0 0.00 0.00 0.00 68 1015.1
20260504080839 55 155 0.0 0.0 0.00 0.00 0.00 68 1014.9
20260504080337 54 155 0.0 0.0 0.00 0.00 0.00 68 1015.0
20260504070304 55 155 0.0 0.0 0.00 0.00 0.00 66 1015.9
20260504060219 54 147 0.0 0.0 0.00 0.00 0.00 64 1016.4
20260504050646 56 156 0.0 1.0 0.00 0.00 0.00 60 1016.7
20260504050143 56 148 0.0 1.0 0.00 0.00 0.00 59 1016.8
20260504045641 57 154 0.0 1.0 0.00 0.00 0.00 59 1016.9
20260504045140 57 179 2.0 3.0 0.00 0.00 0.00 59 1017.2
20260504044638 57 153 0.0 3.0 0.00 0.00 0.00 59 1017.0
20260504044135 57 152 0.0 1.0 0.00 0.00 0.00 58 1017.0
20260504043632 57 142 1.0 1.0 0.00 0.00 0.00 58 1017.2
20260504043129 57 158 2.0 2.0 0.00 0.00 0.00 58 1016.8
20260504042627 57 152 0.0 1.0 0.00 0.00 0.00 58 1017.0
20260504042123 57 152 1.0 2.0 0.00 0.00 0.00 58 1016.7
20260504041619 57 156 1.0 2.0 0.00 0.00 0.00 58 1017.0
20260504041115 57 150 0.0 1.0 0.00 0.00 0.00 58 1017.3
20260504040613 57 151 0.0 1.0 0.00 0.00 0.00 58 1017.2
20260504040109 57 150 1.0 1.0 0.00 0.00 0.00 57 1017.5
20260504035606 57 150 1.0 2.0 0.00 0.00 0.00 57 1017.4
20260504035103 57 138 0.0 1.0 0.00 0.00 0.00 57 1017.4
20260504034601 57 158 1.0 1.0 0.00 0.00 0.00 57 1017.5
20260504034057 57 150 0.0 1.0 0.00 0.00 0.00 57 1017.5
20260504033555 57 220 2.0 2.0 0.00 0.00 0.00 57 1017.4
20260504033052 57 156 1.0 2.0 0.00 0.00 0.00 57 1017.6
20260504032549 57 166 1.0 2.0 0.00 0.00 0.00 57 1017.8
20260504032046 57 175 2.0 3.0 0.00 0.00 0.00 57 1017.6
20260504031543 57 151 0.0 2.0 0.00 0.00 0.00 57 1017.8
20260504031039 57 158 1.0 2.0 0.00 0.00 0.00 57 1017.7
20260504030537 57 163 0.0 2.0 0.00 0.00 0.00 57 1017.6
20260504030032 57 160 1.0 1.0 0.00 0.00 0.00 57 1017.6
20260504025530 57 154 0.0 1.0 0.00 0.00 0.00 57 1018.0
20260504025026 57 156 1.0 1.0 0.00 0.00 0.00 57 1017.8
20260504024524 57 158 1.0 1.0 0.00 0.00 0.00 57 1017.9
20260504024020 57 150 0.0 2.0 0.00 0.00 0.00 57 1018.1
20260504023517 57 174 1.0 2.0 0.00 0.00 0.00 57 1018.1
20260504023013 57 157 1.0 1.0 0.00 0.00 0.00 57 1017.8
20260504022509 57 153 0.0 1.0 0.00 0.00 0.00 57 1018.0
20260504022006 56 155 0.0 1.0 0.00 0.00 0.00 57 1017.9
20260504021504 56 163 0.0 1.0 0.00 0.00 0.00 57 1018.1
20260504021000 57 163 0.0 1.0 0.00 0.00 0.00 56 1017.8
20260504020456 57 163 0.0 0.0 0.00 0.00 0.00 56 1017.8
20260504015953 57 163 0.0 0.0 0.00 0.00 0.00 56 1018.0
20260504015449 57 163 0.0 1.0 0.00 0.00 0.00 56 1018.1
20260504014945 57 163 0.0 1.0 0.00 0.00 0.00 55 1018.2
20260504014442 57 163 1.0 1.0 0.00 0.00 0.00 55 1018.1
20260504013938 57 162 0.0 0.0 0.00 0.00 0.00 55 1018.1
20260504013437 57 161 0.0 1.0 0.00 0.00 0.00 55 1018.0
20260504012933 57 151 0.0 0.0 0.00 0.00 0.00 55 1018.1
20260504012431 56 142 0.0 0.0 0.00 0.00 0.00 55 1018.0
20260504011928 57 142 0.0 0.0 0.00 0.00 0.00 54 1018.3
20260504011425 57 142 0.0 0.0 0.00 0.00 0.00 54 1018.2
20260504010920 57 142 0.0 0.0 0.00 0.00 0.00 53 1018.4
20260504010417 57 142 0.0 0.0 0.00 0.00 0.00 52 1018.4
20260504005913 58 142 0.0 0.0 0.00 0.00 0.00 52 1018.2
20260504005410 59 147 0.0 0.0 0.00 0.00 0.00 51 1018.3
20260504004908 59 155 0.0 0.0 0.00 0.00 0.00 51 1018.1